GLO4522 SBBE-SVMI

Flight info

Callsign GLO4522
Flight time N/A
Altitude 34000
Route ILMAN UZ41 OTONI UG449 ZY UG443 CBC NETSI1
Aircraft B738/M-SDE2E3FGHIRWXY/LB1

Departure

Time 2026-05-01 14:40
Airport Val de Cans/Júlio Cezar Ribeiro International Airport (SBBE)

Arrival

Time N/A
Airport Maiquetía Simón Bolívar International Airport (SVMI)
Time Latitude Longitude Altitude Speed Heading
2026-05-01 14:26 -1.39036 -48.47905 31 ft 0 kts 282°
2026-05-01 14:31 -1.39037 -48.47904 31 ft 2 kts 282°
2026-05-01 14:32 -1.39043 -48.47880 30 ft 4 kts 292°
2026-05-01 14:32 -1.39051 -48.47864 30 ft 4 kts 303°
2026-05-01 14:32 -1.39067 -48.47845 30 ft 1 kts 321°
2026-05-01 14:35 -1.39061 -48.47843 30 ft 2 kts 24°
2026-05-01 14:35 -1.39028 -48.47828 30 ft 8 kts 22°
2026-05-01 14:36 -1.38953 -48.47817 32 ft 13 kts
2026-05-01 14:36 -1.38844 -48.47807 32 ft 18 kts
2026-05-01 14:36 -1.38714 -48.47797 36 ft 19 kts
2026-05-01 14:36 -1.38668 -48.47863 38 ft 13 kts 266°
2026-05-01 14:37 -1.38672 -48.47953 40 ft 13 kts 271°
2026-05-01 14:37 -1.38672 -48.48040 43 ft 12 kts 268°
2026-05-01 14:37 -1.38674 -48.48125 44 ft 12 kts 268°
2026-05-01 14:37 -1.38678 -48.48208 45 ft 12 kts 260°
2026-05-01 14:38 -1.38725 -48.48273 44 ft 12 kts 225°
2026-05-01 14:38 -1.38780 -48.48328 44 ft 11 kts 225°
2026-05-01 14:38 -1.38815 -48.48394 42 ft 11 kts 265°
2026-05-01 14:38 -1.38816 -48.48468 43 ft 9 kts 290°
2026-05-01 14:39 -1.38778 -48.48471 43 ft 4 kts 42°
2026-05-01 14:39 -1.38679 -48.48371 42 ft 56 kts 45°
2026-05-01 14:39 -1.38220 -48.47911 47 ft 128 kts 45°
2026-05-01 14:39 -1.37460 -48.47142 183 ft 176 kts 48°
2026-05-01 14:40 -1.36540 -48.46186 731 ft 203 kts 47°
2026-05-01 14:40 -1.35535 -48.45169 1499 ft 210 kts 41°
2026-05-01 14:40 -1.34180 -48.44567 2225 ft 223 kts
2026-05-01 14:40 -1.32634 -48.44884 2746 ft 240 kts 332°
2026-05-01 14:41 -1.31515 -48.46146 3294 ft 253 kts 293°
2026-05-01 14:41 -1.31304 -48.47886 3835 ft 259 kts 258°
2026-05-01 14:41 -1.31943 -48.49574 4416 ft 262 kts 242°
2026-05-01 14:41 -1.32775 -48.51211 4973 ft 269 kts 242°
2026-05-01 14:42 -1.33596 -48.52944 5474 ft 280 kts 244°
2026-05-01 14:42 -1.34379 -48.54744 6196 ft 284 kts 245°
2026-05-01 14:42 -1.35143 -48.56578 6854 ft 289 kts 246°
2026-05-01 14:42 -1.35982 -48.58410 7506 ft 292 kts 234°
2026-05-01 14:43 -1.37330 -48.59927 8149 ft 294 kts 223°
2026-05-01 14:43 -1.38804 -48.61364 8782 ft 299 kts 223°
2026-05-01 14:43 -1.40295 -48.62841 9417 ft 304 kts 224°
2026-05-01 14:43 -1.41797 -48.64348 10050 ft 308 kts 225°
2026-05-01 14:44 -1.43249 -48.65938 10678 ft 311 kts 229°
2026-05-01 14:44 -1.45946 -48.69431 11467 ft 336 kts 248°
2026-05-01 14:44 -1.46477 -48.71747 11652 ft 352 kts 266°
2026-05-01 14:45 -1.46677 -48.74252 11799 ft 371 kts 268°
2026-05-01 14:45 -1.46992 -48.79581 12466 ft 392 kts 268°
2026-05-01 14:45 -1.47159 -48.82273 13037 ft 394 kts 267°
2026-05-01 14:46 -1.47342 -48.85020 13592 ft 398 kts 267°
2026-05-01 14:46 -1.47736 -48.90585 14555 ft 405 kts 267°
2026-05-01 14:46 -1.47941 -48.93398 15042 ft 408 kts 267°
2026-05-01 14:47 -1.48147 -48.96236 15512 ft 411 kts 267°
2026-05-01 14:47 -1.48355 -48.99092 15971 ft 414 kts 267°
2026-05-01 14:47 -1.48564 -49.01974 16429 ft 417 kts 267°
2026-05-01 14:48 -1.48987 -49.07799 17312 ft 423 kts 267°
2026-05-01 14:48 -1.48997 -49.10739 17712 ft 425 kts 281°
2026-05-01 14:48 -1.46468 -49.15922 18539 ft 416 kts 317°
2026-05-01 14:49 -1.42055 -49.19642 19259 ft 417 kts 325°
2026-05-01 14:49 -1.37482 -49.23268 19951 ft 422 kts 324°
2026-05-01 14:50 -1.33658 -49.26333 20537 ft 426 kts 324°
2026-05-01 14:50 -1.28241 -49.30726 21316 ft 431 kts 324°
2026-05-01 14:51 -1.25909 -49.32626 21640 ft 434 kts 323°
2026-05-01 14:51 -1.21207 -49.36459 22254 ft 439 kts 323°
2026-05-01 14:52 -1.16449 -49.40336 22850 ft 444 kts 323°
2026-05-01 14:52 -1.14081 -49.42265 23135 ft 446 kts 323°
2026-05-01 14:52 -1.09244 -49.46205 23656 ft 451 kts 323°
2026-05-01 14:53 -1.06807 -49.48190 23893 ft 453 kts 323°
2026-05-01 14:53 -1.04363 -49.50181 24146 ft 454 kts 323°
2026-05-01 14:53 -1.01913 -49.52177 24384 ft 455 kts 323°
2026-05-01 14:53 -0.99452 -49.54182 24606 ft 457 kts 323°
2026-05-01 14:54 -0.96981 -49.56194 24828 ft 459 kts 323°
2026-05-01 14:54 -0.94501 -49.58214 25059 ft 461 kts 323°
2026-05-01 14:54 -0.92010 -49.60244 25284 ft 462 kts 323°
2026-05-01 14:54 -0.89518 -49.62274 25508 ft 464 kts 323°
2026-05-01 14:55 -0.87012 -49.64316 25729 ft 465 kts 323°
2026-05-01 14:55 -0.84499 -49.66362 25945 ft 467 kts 323°
2026-05-01 14:55 -0.81980 -49.68413 26150 ft 468 kts 323°
2026-05-01 14:55 -0.79450 -49.70475 26353 ft 470 kts 322°
2026-05-01 14:56 -0.76916 -49.72540 26562 ft 471 kts 322°
2026-05-01 14:56 -0.74370 -49.74615 26768 ft 473 kts 322°
2026-05-01 14:56 -0.71817 -49.76697 26965 ft 474 kts 322°
2026-05-01 14:56 -0.69260 -49.78783 27158 ft 476 kts 322°
2026-05-01 14:57 -0.66693 -49.80876 27341 ft 477 kts 322°
2026-05-01 14:57 -0.61532 -49.85081 27706 ft 480 kts 322°
2026-05-01 14:57 -0.58939 -49.87191 27898 ft 481 kts 322°
2026-05-01 14:58 -0.56340 -49.89304 28086 ft 482 kts 322°
2026-05-01 14:58 -0.53766 -49.91396 28266 ft 484 kts 322°
2026-05-01 14:58 -0.51118 -49.93549 28442 ft 485 kts 322°
2026-05-01 14:58 -0.48537 -49.95649 28618 ft 486 kts 322°
2026-05-01 14:59 -0.45913 -49.97784 28793 ft 487 kts 322°
2026-05-01 14:59 -0.43285 -49.99922 28973 ft 488 kts 322°
2026-05-01 14:59 -0.40657 -50.02061 29222 ft 487 kts 322°
2026-05-01 14:59 -0.38037 -50.04193 29509 ft 485 kts 322°
2026-05-01 15:00 -0.32816 -50.08442 30016 ft 483 kts 322°
2026-05-01 15:00 -0.30210 -50.10562 30218 ft 483 kts 322°
2026-05-01 15:00 -0.27607 -50.12681 30433 ft 482 kts 322°
2026-05-01 15:01 -0.25007 -50.14796 30684 ft 481 kts 322°
2026-05-01 15:01 -0.22420 -50.16901 30928 ft 479 kts 322°
2026-05-01 15:01 -0.19834 -50.19005 31145 ft 479 kts 322°
2026-05-01 15:01 -0.17248 -50.21109 31359 ft 478 kts 322°
2026-05-01 15:02 -0.14670 -50.23207 31579 ft 478 kts 322°
2026-05-01 15:02 -0.12964 -50.24594 31731 ft 477 kts 322°
2026-05-01 15:02 -0.09527 -50.27391 32041 ft 476 kts 322°
2026-05-01 15:02 -0.06960 -50.29479 32262 ft 475 kts 322°
2026-05-01 15:03 -0.04395 -50.31566 32477 ft 475 kts 322°
2026-05-01 15:03 -0.01838 -50.33647 32682 ft 475 kts 322°
2026-05-01 15:03 0.00690 -50.35704 32912 ft 474 kts 322°
2026-05-01 15:03 0.03242 -50.37780 33163 ft 473 kts 322°
2026-05-01 15:04 0.05790 -50.39853 33421 ft 471 kts 322°
2026-05-01 15:04 0.08327 -50.41917 33658 ft 470 kts 322°
2026-05-01 15:04 0.10866 -50.43983 33865 ft 470 kts 322°
2026-05-01 15:04 0.13398 -50.46043 34067 ft 470 kts 322°
2026-05-01 15:05 0.15930 -50.48103 34276 ft 469 kts 322°
2026-05-01 15:05 0.18456 -50.50158 34481 ft 468 kts 322°
2026-05-01 15:05 0.20974 -50.52207 34677 ft 467 kts 322°
2026-05-01 15:05 0.23496 -50.54259 34836 ft 467 kts 322°
2026-05-01 15:06 0.26018 -50.56311 35009 ft 467 kts 321°
2026-05-01 15:06 0.28533 -50.58358 35183 ft 466 kts 321°
2026-05-01 15:06 0.31047 -50.60403 35355 ft 466 kts 321°
2026-05-01 15:06 0.33559 -50.62447 35518 ft 466 kts 321°
2026-05-01 15:07 0.36074 -50.64493 35670 ft 466 kts 321°
2026-05-01 15:07 0.38584 -50.66535 35840 ft 465 kts 321°
2026-05-01 15:07 0.41096 -50.68579 35964 ft 466 kts 321°
2026-05-01 15:08 0.46145 -50.72688 35984 ft 470 kts 321°
2026-05-01 15:08 0.51238 -50.76832 35988 ft 474 kts 321°
2026-05-01 15:09 0.56375 -50.81013 35987 ft 478 kts 321°
2026-05-01 15:09 0.61548 -50.85223 35988 ft 481 kts 321°
2026-05-01 15:10 0.66718 -50.89431 35964 ft 476 kts 321°
2026-05-01 15:10 0.74348 -50.95642 35981 ft 469 kts 322°
2026-05-01 15:11 0.81950 -51.01769 35981 ft 467 kts 322°
2026-05-01 15:12 0.86982 -51.05795 35992 ft 467 kts 322°
2026-05-01 15:12 0.94591 -51.11893 35986 ft 468 kts 322°
2026-05-01 15:14 1.07303 -51.22097 35977 ft 470 kts 322°
2026-05-01 15:14 1.14966 -51.28248 35993 ft 472 kts 322°
2026-05-01 15:15 1.25213 -51.36474 35975 ft 472 kts 322°
2026-05-01 15:16 1.35408 -51.44660 35973 ft 468 kts 322°
2026-05-01 15:18 1.48002 -51.54772 35977 ft 464 kts 322°
2026-05-01 15:19 1.58034 -51.62829 35982 ft 462 kts 322°
2026-05-01 15:19 1.65552 -51.68867 35978 ft 463 kts 322°
2026-05-01 15:20 1.73090 -51.74921 35984 ft 464 kts 322°
2026-05-01 15:21 1.78130 -51.78970 35982 ft 466 kts 322°
2026-05-01 15:21 1.83188 -51.83033 35979 ft 467 kts 322°
2026-05-01 15:22 1.90806 -51.89154 35978 ft 469 kts 322°
2026-05-01 15:22 1.95900 -51.93247 35976 ft 471 kts 322°
2026-05-01 15:23 2.01013 -51.97356 35984 ft 472 kts 322°
2026-05-01 15:23 2.06099 -52.01443 35976 ft 472 kts 322°
2026-05-01 15:24 2.11221 -52.05560 35976 ft 473 kts 322°
2026-05-01 15:24 2.16347 -52.09680 35976 ft 472 kts 322°
2026-05-01 15:25 2.20604 -52.13103 35984 ft 472 kts 322°
2026-05-01 15:25 2.25723 -52.17218 35975 ft 472 kts 322°
2026-05-01 15:26 2.30840 -52.21332 35974 ft 472 kts 322°
2026-05-01 15:26 2.35955 -52.25445 35983 ft 471 kts 322°
2026-05-01 15:27 2.41065 -52.29554 35984 ft 471 kts 322°
2026-05-01 15:28 2.48724 -52.35715 35987 ft 471 kts 322°
2026-05-01 15:28 2.53826 -52.39819 35980 ft 471 kts 322°
2026-05-01 15:29 2.61477 -52.45976 35981 ft 471 kts 322°
2026-05-01 15:30 2.71392 -52.54535 35985 ft 471 kts 316°
2026-05-01 15:31 2.85486 -52.68261 35980 ft 473 kts 316°
2026-05-01 15:32 2.94986 -52.77396 35980 ft 474 kts 316°
2026-05-01 15:34 3.09249 -52.91121 35986 ft 475 kts 316°